Location: Unspecified
(0.0000°N, 0.0000°E)
Time: 16:18:56
(UTC+00:00)

A-11 Canister half - Pass Details

Date: 28 November 2019
Orbit: 1515 x 1685 km, 47.2° (Epoch: 12 December)

Event Time Altitude Azimuth Distance (km) Brightness Sun altitude
Rises 14:25:43 0° 262° (W) 4,742 12.2 46.0°
Reaches altitude 10° 14:30:39 10° 283° (WNW) 3,790 11.7 44.9°
Maximum altitude 14:35:40 15° 315° (NW) 3,421 11.2 43.9°
Drops below altitude 10° 14:40:47 10° 348° (NNW) 3,857 11.1 42.8°
Sets 14:45:58 0° 9° (N) 4,874 11.3 41.6°
